Weather observations for the past three days for
Manhattan, Manhattan Municipal Airport
Metric (Imperial)
Date Time (cdt) Wind (kph) Vis. (km) Weather Sky Cond. Temperature (ºC) Relative Humidity Wind Chill (°C) Heat Index (°C) Pressure Precipitation (cm)
Air Dwpt 6 hour altimeter (cm) sea level (mb) 1 hr 3 hr 6 hr
Max. Min.
15 06:52 SW 11 16.09 Fair CLR 26.7 21.1 29.4 25.6 71% 28 75.77 1008.7
15 05:52 SW 9 16.09 Fair CLR 25.6 21.7 79% 27 75.77 1008.7
15 04:52 SW 9 16.09 Fair CLR 26.1 21.7 77% 28 75.79 1008.9
15 03:52 S 9 16.09 Fair CLR 26.7 22.2 76% 29 75.82 1009.3
15 02:52 SW 13 16.09 Fair CLR 28.3 22.2 70% 31 75.82 1009.4
15 01:52 SW 15 16.09 Fair CLR 28.3 22.2 70% 31 75.87 1010.1
15 00:52 SW 11 16.09 Fair CLR 28.3 22.2 36.7 27.8 70% 31 75.9 1010.6
14 23:52 SW 15 16.09 Fair CLR 29.4 22.2 65% 33 75.9 1010.4
14 22:52 S 9 16.09 Fair CLR 30.6 22.2 61% 34 75.87 1010.2
14 21:52 S 7 16.09 Fair CLR 31.1 22.8 61% 35 75.84 1009.9
14 20:52 Calm 16.09 Fair CLR 31.1 23.3 63% 36 75.82 1009.6
14 19:52 Calm 16.09 Fair CLR 35 23.3 51% 41 75.84 1009.8
14 18:52 S 9 16.09 Fair CLR 36.7 23.3 37.8 33.9 46% 43 75.84 1009.9
14 17:52 S 13 16.09 Fair CLR 37.8 21.7 39% 43 75.87 1010.0
14 16:52 S 13 16.09 Fair CLR 37.2 23.3 45% 44 75.92 1010.7
14 15:52 S 13 16.09 Fair CLR 36.7 23.3 46% 43 75.95 1011.2
14 14:52 Vrbl 7 16.09 Fair CLR 36.1 22.2 45% 41 76 1011.7
14 13:52 Vrbl 7 16.09 Fair CLR 35 21.7 46% 39 76.02 1012.0
14 12:52 S 11 16.09 Fair CLR 34.4 22.2 34.4 24.4 49% 39 76.05 1012.5
14 11:52 S 11 16.09 Fair CLR 32.8 22.2 54% 37 76.15 1013.8
14 10:52 Vrbl 6 16.09 Fair CLR 31.1 21.7 57% 34 76.17 1014.3
14 09:52 E 6 16.09 Fair CLR 29.4 21.7 63% 32 76.17 1014.2
14 08:52 NW 13 16.09 Fair CLR 28.9 21.1 63% 31 76.17 1014.3
14 07:52 S 13 16.09 Fair CLR 26.7 21.1 71% 28 76.05 1012.4
14 06:52 Calm 16.09 Fair CLR 23.9 21.1 28.9 23.9 84% 24 76.02 1012.3
14 04:52 SW 20 G 31 16.09 Thunderstorm in Vicinity CLR 26.7 20 67% 28 76.02 1012.2
14 03:52 SW 19 16.09 Fair CLR 26.7 19.4 64% 28 76.02 1012.3
14 02:52 SW 24 16.09 Fair CLR 27.2 19.4 62% 29 76.1 1013.0
14 01:52 SW 26 G 41 16.09 Fair CLR 28.3 18.9 57% 30 76.12 1013.4
14 00:52 S 26 16.09 Fair CLR 28.9 18.9 34.4 28.3 55% 30 76.12 1013.5
13 23:52 S 28 G 44 16.09 Fair CLR 29.4 18.3 51% 30 76.12 1013.3
13 22:52 S 19 G 39 16.09 Fair CLR 30 17.8 48% 31 76.1 1013.3
13 21:52 S 19 16.09 Fair CLR 30.6 18.3 48% 32 76.07 1012.9
13 20:52 S 20 G 35 16.09 Fair CLR 31.7 19.4 48% 33 76.05 1012.7
13 19:52 S 19 16.09 Fair CLR 32.8 20 47% 35 76.07 1013.0
13 18:52 S 22 G 35 16.09 Fair CLR 34.4 21.1 36.1 33.9 46% 38 76.07 1012.9
13 17:52 S 22 G 39 16.09 Fair CLR 35 21.1 44% 39 76.07 1012.9
13 16:52 S 24 G 43 16.09 Fair CLR 36.1 21.1 42% 40 76.15 1013.9
13 15:52 S 24 G 44 16.09 Fair CLR 35.6 20.6 41% 39 76.17 1014.0
13 14:52 SW 26 G 46 16.09 Fair CLR 35.6 21.1 43% 39 76.17 1014.2
13 13:52 S 26 G 48 16.09 Fair CLR 35 21.1 44% 39 76.17 1014.3
13 12:52 S 24 G 39 16.09 Fair CLR 33.9 21.7 33.9 25.6 49% 38 76.23 1014.8
13 11:52 S 20 G 37 16.09 Fair CLR 32.2 21.1 52% 35 76.23 1015.0
13 10:52 SW 24 G 46 16.09 Fair CLR 31.7 20.6 52% 34 76.2 1014.8
13 09:52 S 20 G 39 16.09 Fair CLR 29.4 20.6 59% 32 76.2 1014.6
13 08:52 SW 19 16.09 Fair CLR 27.8 20 63% 29 76.23 1014.9
13 07:52 S 11 16.09 Fair CLR 27.2 20 65% 29 76.2 1014.5
13 06:52 S 11 16.09 Fair CLR 25.6 19.4 28.3 25 69% 27 76.15 1013.8
13 05:52 S 11 16.09 Fair CLR 26.1 19.4 67% 27 76.12 1013.6
13 04:52 S 6 16.09 Fair CLR 25.6 20 71% 27 76.12 1013.5
13 03:52 S 9 16.09 Fair CLR 26.7 20.6 69% 28 76.1 1013.1
13 02:52 S 7 16.09 Fair CLR 26.7 21.1 71% 28 76.1 1013.3
13 01:52 S 9 16.09 Fair CLR 27.8 21.1 67% 30 76.12 1013.3
13 00:52 S 7 16.09 Fair CLR 28.3 21.1 33.3 28.3 65% 31 76.12 1013.5
12 23:52 S 11 16.09 Fair CLR 30 20.6 57% 32 76.12 1013.5
12 22:52 Calm 16.09 Fair CLR 29.4 22.8 68% 33 76.1 1013.2
12 21:52 Calm 16.09 Fair CLR 29.4 23.3 70% 34 76.1 1013.1
12 20:52 E 13 16.09 Fair CLR 30.6 23.9 67% 36 76.05 1012.7
12 19:52 E 13 16.09 Fair CLR 31.7 23.9 63% 37 76.05 1012.8
12 18:52 E 11 16.09 Fair CLR 33.3 23.3 35.6 32.2 56% 39 76.02 1012.3
12 17:52 SE 13 16.09 Fair CLR 35 23.3 51% 41 76.02 1012.3
12 16:52 SE 17 16.09 Fair CLR 35 22.8 49% 40 76.05 1012.6
12 15:52 SE 19 16.09 Fair CLR 35 22.8 49% 40 76.07 1013.0
12 14:52 S 17 16.09 Fair CLR 33.9 21.7 49% 38 76.1 1013.5
12 13:52 SE 19 16.09 Fair CLR 33.9 22.2 50% 38 76.12 1013.6
12 12:52 SE 13 16.09 Fair CLR 32.2 21.7 32.8 23.3 54% 36 76.15 1013.9
12 11:52 S 13 16.09 A Few Clouds FEW110 30.6 21.1 57% 33 76.17 1014.4
12 10:52 S 17 16.09 Fair CLR 28.9 20.6 61% 31 76.17 1014.5
12 09:52 S 15 16.09 Fair CLR 28.9 20.6 61% 31 76.2 1014.7
12 08:52 S 13 16.09 Fair CLR 27.2 20 65% 29 76.2 1014.7
12 07:52 S 17 16.09 Fair CLR 25 20 74% 26 76.2 1014.7
Date Time (cdt) Wind (kph) Vis. (km) Weather Sky Cond. Air Dwpt Max. Min. Relative Humidity Wind Chill (°C) Heat Index (°C) altimeter (cm) sea level (mb) 1 hr 3 hr 6 hr
6 hour
Temperature (ºC) Pressure Precipitation (cm)